TimeMDT,TemperatureF,Dew PointF,Humidity,Sea Level PressureIn,VisibilityMPH,Wind Direction,Wind SpeedMPH,Gust SpeedMPH,PrecipitationIn,Events,Conditions,WindDirDegrees,DateUTC
12:53 AM,68.0,48.0,49,29.83,10.0,SE,12.7,20.7,N/A,,Clear,140,2013-07-28 06:53:00
1:53 AM,66.9,48.0,51,29.81,10.0,SE,12.7,-,N/A,,Clear,140,2013-07-28 07:53:00
2:53 AM,66.0,48.0,52,29.81,10.0,SE,11.5,18.4,N/A,,Clear,140,2013-07-28 08:53:00
3:53 AM,64.9,48.0,54,29.80,10.0,SE,9.2,-,N/A,,Clear,140,2013-07-28 09:53:00
4:53 AM,64.0,46.9,54,29.80,10.0,SE,12.7,-,N/A,,Clear,130,2013-07-28 10:53:00
5:53 AM,63.0,46.0,54,29.80,10.0,SE,13.8,-,N/A,,Partly Cloudy,140,2013-07-28 11:53:00
6:53 AM,63.0,46.9,56,29.82,10.0,SE,8.1,-,N/A,,Partly Cloudy,140,2013-07-28 12:53:00
7:53 AM,64.9,48.0,54,29.86,10.0,SSW,3.5,-,N/A,,Mostly Cloudy,210,2013-07-28 13:53:00
8:53 AM,66.0,46.9,50,29.86,10.0,NE,16.1,-,N/A,,Mostly Cloudy,40,2013-07-28 14:53:00
11:53 AM,73.0,52.0,48,29.83,10.0,Variable,4.6,-,N/A,,Scattered Clouds,0,2013-07-28 17:53:00
12:53 PM,78.1,53.1,42,29.81,10.0,Variable,6.9,-,N/A,,Clear,0,2013-07-28 18:53:00
1:53 PM,81.0,53.1,38,29.80,10.0,SSE,13.8,19.6,N/A,,Partly Cloudy,160,2013-07-28 19:53:00
2:53 PM,80.1,53.1,39,29.82,10.0,Variable,3.5,-,N/A,,Mostly Cloudy,0,2013-07-28 20:53:00
3:53 PM,81.0,50.0,34,29.82,10.0,North,20.7,-,N/A,,Partly Cloudy,350,2013-07-28 21:53:00
4:53 PM,81.0,48.0,31,29.81,10.0,North,20.7,26.5,N/A,,Clear,10,2013-07-28 22:53:00
5:53 PM,79.0,46.9,32,29.81,10.0,NE,12.7,-,N/A,,Scattered Clouds,40,2013-07-28 23:53:00
6:48 PM,78.8,51.8,39,29.83,10.0,East,13.8,-,N/A,,Scattered Clouds,100,2013-07-29 00:48:00
6:53 PM,78.1,52.0,40,29.78,10.0,East,9.2,-,N/A,,Partly Cloudy,100,2013-07-29 00:53:00
7:53 PM,75.9,55.0,48,29.81,10.0,SE,3.5,-,N/A,,Clear,140,2013-07-29 01:53:00
8:53 PM,71.1,55.0,57,29.85,10.0,SSE,9.2,-,N/A,,Clear,150,2013-07-29 02:53:00
9:53 PM,68.0,55.0,63,29.86,10.0,SSE,3.5,-,N/A,,Clear,160,2013-07-29 03:53:00
10:53 PM,68.0,55.0,63,29.87,10.0,South,8.1,-,N/A,,Clear,180,2013-07-29 04:53:00